This is the latest recevied weather packets stored in our database for station/object IR1CH-3. If no packets are shown the sender has not sent any weather packets the latest 10 day(s).
| Time | Temp. | Humidity | Pressure | Rain* | Wind** | Luminosity | Snow |
|---|---|---|---|---|---|---|---|
| 1788415709 | 25.56° C | 99% | 1017.2 hPa | - | - | - | - |
| 1788413908 | 23.89° C | 99% | 1017.4 hPa | - | - | - | - |
| 1788412108 | 23.89° C | 99% | 1017.1 hPa | - | - | - | - |
| 1788410307 | 24.44° C | 99% | 1016.9 hPa | - | - | - | - |
| 1788408507 | 23.89° C | 99% | 1017.2 hPa | - | - | - | - |
| 1788406707 | 23.89° C | 99% | 1017.2 hPa | - | - | - | - |
| 1788404906 | 24.44° C | 99% | 1016.9 hPa | - | - | - | - |
| 1788403106 | 24.44° C | 99% | 1016.8 hPa | - | - | - | - |
| 1788401306 | 24.44° C | 99% | 1016.8 hPa | - | - | - | - |
| 1788379702 | 26.11° C | 99% | 1016.7 hPa | - | - | - | - |
| 1788377902 | 25° C | 99% | 1016.7 hPa | - | - | - | - |
| 1788376101 | 25.56° C | 99% | 1016.5 hPa | - | - | - | - |
| 1788372500 | 25° C | 99% | 1016 hPa | - | - | - | - |
| 1788370700 | 24.44° C | 99% | 1016.3 hPa | - | - | - | - |
| 1788368900 | 25° C | 99% | 1016.2 hPa | - | - | - | - |
| 1788367099 | 25.56° C | 99% | 1016 hPa | - | - | - | - |
| 1788363499 | 25.56° C | 99% | 1016.3 hPa | - | - | - | - |
| 1788361699 | 25.56° C | 99% | 1016.4 hPa | - | - | - | - |
| 1788356298 | 27.22° C | 99% | 1016.6 hPa | - | - | - | - |
| 1788354497 | 27.22° C | 99% | 1016.8 hPa | - | - | - | - |
| 1788352747 | 26.67° C | 99% | 1016.9 hPa | - | - | - | - |
| 1788350947 | 27.22° C | 97% | 1016.8 hPa | - | - | - | - |
| 1788349146 | 27.78° C | 96% | 1017.2 hPa | - | - | - | - |
| 1788347346 | 27.22° C | 97% | 1017.3 hPa | - | - | - | - |
| 1788345546 | 26.67° C | 99% | 1017.8 hPa | - | - | - | - |
* Rain since midnight (hover to see other rain measurements)
** Current wind speed in m/s (hover to see current wind gust speed)